Home > Weather > Fort-de-France > Past weeks

Flag for Martinique Past Weather in Fort-de-France, Martinique — Yesterday and Last 2 Weeks

Now
79 °F

Passing clouds.


Feels Like: 82 °F
Forecast: 75 / 89 °F
Wind: 2 mph from North

Location: Le Lamentin Airport

Current Time: Aug 26, 2016 at 9:24:17 PM

Latest Report: Aug 26, 2016 at 9:00 PM


Visibility: N/A

Pressure: 29.95 "Hg

Humidity: 89%

Dew Point: 75 °F

Location of Fort-de-FranceLocation

Past Weather in Fort-de-France — Graph

°F

Fort-de-France Temperature Yesterday

Maximum temperature yesterday: 90 °F (at 11:00 AM)
Minimum temperature yesterday: 75 °F (at 12:30 AM)
Average temperature yesterday: 82 °F

High & Low Weather Summary for the Past Weeks

 TemperatureHumidityPressure
High91 °F (Aug 23, 2:00 PM)94% (Aug 11, 8:00 PM)30.01 "Hg (Aug 11, 8:00 PM)
Low73 °F (Aug 23, 4:00 AM)52% (Aug 21, 1:00 PM)29.86 "Hg (Aug 23, 2:30 PM)
Average82 °F76%29.95 "Hg
* Reported Aug 11 8:00 PM — Aug 26 8:00 PM, Fort-de-France, Weather by CustomWeather, © 2016

Note: Actual official high and low records may vary slightly from our data, if they occured in-between our weather recording intervals... More about our weather records

Advertising

Fort-de-France Weather History for the Previous 24 Hours

Scroll right to see more
 ConditionsComfort  
Time TempWeatherWind HumidityBarometerVisibility
8:00 PM
Fri, Aug 26
81 °FPartly cloudy.2 mph84%29.92 "HgN/A
7:30 PM81 °FPassing clouds.No wind84%29.92 "HgN/A
7:00 PM81 °FClear.No wind84%29.92 "HgN/A
6:30 PM81 °FClear.No wind79%29.92 "HgN/A
6:00 PM82 °FBroken clouds.3 mph70%29.89 "HgN/A
5:30 PM82 °FBroken clouds.9 mph74%29.92 "HgN/A
5:00 PM86 °FClear.3 mph70%29.89 "HgN/A
4:30 PM86 °FClear.3 mph70%29.89 "HgN/A
4:00 PM82 °FClear.2 mph79%29.89 "HgN/A
3:30 PM79 °FClear.2 mph89%29.92 "HgN/A
3:00 PM77 °FPassing clouds.3 mph89%29.92 "HgN/A
2:30 PM77 °FBroken clouds.6 mph89%29.92 "HgN/A
2:00 PM75 °FHeavy rain. Fog.8 mph94%29.95 "Hg1 mi
1:30 PM75 °FHeavy rain. Broken clouds.16 mph89%29.95 "Hg4 mi
1:00 PM82 °FPartly sunny.5 mph79%29.92 "HgN/A
12:30 PM82 °FClear.6 mph79%29.95 "HgN/A
12:00 PM82 °FBroken clouds.5 mph79%29.95 "HgN/A
11:30 AM82 °FRain. Partly sunny.7 mph79%29.95 "HgN/A
11:00 AM88 °FPartly sunny.3 mph62%29.95 "HgN/A
10:30 AM88 °FPartly sunny.7 mph70%29.95 "HgN/A
10:00 AM88 °FPartly sunny.5 mph66%29.95 "HgN/A
9:30 AM81 °FLight rain. Broken clouds.10 mph84%29.95 "HgN/A
9:00 AM88 °FPassing clouds.5 mph66%29.95 "HgN/A
8:30 AM86 °FClear.3 mph70%29.95 "HgN/A
8:00 AM82 °FPassing clouds.2 mph84%29.95 "HgN/A
7:30 AM81 °FPassing clouds.2 mph84%29.95 "HgN/A
7:00 AM77 °FScattered clouds.5 mph94%29.95 "HgN/A
6:30 AM75 °FPassing clouds.3 mph94%29.92 "HgN/A
6:00 AM75 °FClear.3 mph94%29.92 "HgN/A
5:30 AM75 °FClear.2 mph94%29.92 "HgN/A
5:00 AM75 °FClear.6 mph94%29.92 "HgN/A
4:30 AM75 °FClear.3 mph94%29.92 "HgN/A
4:00 AM75 °FClear.3 mph89%29.92 "HgN/A
3:30 AM75 °FClear.3 mph89%29.92 "HgN/A
3:00 AM75 °FClear.5 mph89%29.92 "HgN/A
2:30 AM75 °FClear.3 mph89%29.92 "HgN/A
2:00 AM77 °FWarm.5 mph89%29.92 "HgN/A
1:30 AM77 °FPartly cloudy.5 mph89%29.92 "HgN/A
1:00 AM77 °FPassing clouds.5 mph89%29.92 "HgN/A
12:30 AM77 °FWarm.3 mph89%29.95 "HgN/A
12:00 AM79 °FMostly cloudy.2 mph89%29.95 "HgN/A
11:30 PM
Thu, Aug 25
79 °FLight rain. Partly cloudy.7 mph84%29.95 "HgN/A
11:00 PM81 °FPartly cloudy.2 mph84%29.95 "HgN/A
10:30 PM81 °FPassing clouds.No wind84%29.95 "HgN/A
10:00 PM81 °FPassing clouds.1 mph84%29.95 "HgN/A
9:30 PM81 °FClear.2 mph84%29.95 "HgN/A
9:00 PM81 °FClear.2 mph84%29.95 "HgN/A
Weather by CustomWeather, © 2016

See weather overviewHow to use our weather pages